DW9791 Weather Reports


time (UTC)temp
C
wind
direction
speed
KPH
gust
KPH
rain 1hr
cm
rain 24hr
cm
rain mn
cm
humidity
%
barometer
mb
20260507013225 17 329 3.2 6.4 0.00 0.00 0.00 70 1020.4
20260507010221 18 329 4.8 6.4 0.00 0.00 0.00 68 1020.5
20260507003217 19 347 1.6 8.0 0.00 0.00 0.00 66 1020.3
20260507000242 20 30 4.8 6.4 0.00 0.00 0.00 64 1020.6
20260506230233 21 323 1.6 8.0 0.00 0.00 0.00 60 1020.9
20260506223228 21 339 0.0 1.6 0.00 0.00 0.00 59 1020.9
20260506220225 22 44 0.0 8.0 0.00 0.00 0.00 56 1021.2
20260506213220 21 330 3.2 8.0 0.00 0.00 0.00 57 1021.4
20260506210246 21 344 4.8 6.4 0.00 0.00 0.00 59 1021.8
20260506203241 21 341 0.0 8.0 0.00 0.00 0.00 58 1022.0
20260506200237 20 360 3.2 6.4 0.00 0.00 0.00 61 1022.2
20260506193232 19 311 1.6 9.7 0.00 0.00 0.00 64 1022.1
20260506183223 18 23 3.2 8.0 0.00 0.00 0.00 69 1022.3
20260506180219 16 355 1.6 6.4 0.00 0.00 0.00 72 1022.1
20260506170240 15 23 3.2 8.0 0.00 0.00 0.00 79 1021.8
20260506163236 12 348 1.6 6.4 0.00 0.00 0.00 88 1021.5
20260506153227 11 332 3.2 6.4 0.00 0.00 0.00 93 1021.5
20260506150222 10 318 0.0 0.0 0.00 0.00 0.00 94 1021.3
20260506143218 10 318 0.0 3.2 0.00 0.00 0.00 94 1021.4
20260506140243 10 318 1.6 3.2 0.00 0.00 0.00 94 1021.1
20260506133239 10 318 0.0 3.2 0.00 0.00 0.00 94 1020.7
20260506130235 10 318 0.0 3.2 0.00 0.00 0.00 94 1020.4
20260506123231 10 319 1.6 3.2 0.00 0.00 0.00 94 1020.3
20260506120226 10 319 0.0 0.0 0.00 0.00 0.00 94 1020.3
20260506113222 10 319 0.0 1.6 0.00 0.00 0.00 94 1020.1
20260506110217 10 319 0.0 4.8 0.00 0.00 0.00 93 1020.0
20260506103243 10 318 0.0 0.0 0.00 0.00 0.00 93 1020.0
20260506100238 10 318 0.0 0.0 0.00 0.00 0.00 92 1020.0
20260506093234 10 318 0.0 3.2 0.00 0.00 0.00 92 1020.1
20260506090230 10 319 0.0 0.0 0.00 0.00 0.00 92 1019.9
20260506083225 10 319 1.6 4.8 0.00 0.00 0.00 91 1020.0
20260506080221 10 318 1.6 4.8 0.00 0.00 0.00 91 1019.8
20260506073216 10 318 1.6 3.2 0.00 0.00 0.00 90 1019.7
20260506070243 11 264 1.6 4.8 0.00 0.00 0.00 90 1019.6
20260506060234 11 264 0.0 1.6 0.00 0.00 0.00 90 1019.1
20260506050226 11 264 0.0 0.0 0.00 0.00 0.00 91 1018.9
20260506040246 11 264 0.0 1.6 0.00 0.00 0.00 90 1018.2
20260506033243 11 264 0.0 0.0 0.00 0.00 0.00 88 1017.6
20260506030238 11 290 0.0 6.4 0.00 0.00 0.00 86 1017.3
20260506023233 11 261 0.0 6.4 0.00 0.00 0.00 84 1016.8